Showing default

LEMUR 2 MONSON, 42839

Orbit data source: Space-Track

LEMUR 2 MONSON, 42839 is a payload satellite owned by Spire (US) in SSO that was launched on Fri, 14 Jul 2017 UTC via a SOYUZ-2-1A launch vehicle from the Tyuratam Missile And Space Complex (TTMTR). Payload-class satellites include a variety of spacecraft equipped with specific instruments for various scientific and technological missions. These include communications satellites like Starlink; space stations such as the ISS; scientific satellites like the Hubble; Earth observation satellites from companies like Planet Labs, Umbra, and HawkEye 360; GPS; miniature CubeSats for education and research; and military/defense satellites.

Loading next visibility...
Identifier
42839, 2017-042Q
Orbit
SSO
Country
Flag of USUS
Related business
Manufacturer
Spire/Glasgow
Mission
Operational Commercial Com/MetRO
Bus & Motor
CUBESAT 3U, Unknown motor
Mass
4 kg wet, 4 kg dry
Launch date (UTC)
2017-07-14 (9 years ago)
Launch vehicle
SOYUZ-2-1A
Launch site
Tyuratam Missile And Space Complex (TTMTR)
Object type
Payload
Rocket body
Debris
Shape & HBR
Box, 0.4 m
Radar Cross Section
0.093 m², Medium (>0.1 m² and < 1m²)

Expand to show TLE details & history
Last TLE update: 13 hours ago

TLE from 13 hours ago
0 LEMUR 2 MONSON
1 42839U 17042Q   26208.48660256  .00017087  00000-0  60680-3 0  9991
2 42839  97.4095  28.8731 0006160 197.2624 162.8407 15.29083658494322
Epoch: 2026-07-27T11:40Z
TLE epoch observation values (Epoch: 2026-07-27T11:40:42.461Z)
Latitude
-0.00006°
Longitude
-91.4733°
Altitude
485.69 km
Speed
7.62 km/s
True Right ascension
01h 55m 29s
True Declination
0° 00' 00"
Sunlit
Object was in daylight at epoch
Visualization orbit readout
Latitude
Unknown
Longitude
Unknown
Altitude
Unknown
Speed
Unknown
Apparent Right ascension
Unknown
Apparent Declination
Unknown
Sunlit
N/A
Visualization observer readout
Local Sidereal Time
14:24:47
Azimuth
Unknown
Elevation
Unknown
Doppler factor
Unknown
Orbital elements
Apogee altitude
479.726 km
Perigee altitude
471.282 km
Semi-major axis
6,853.641 km
Eccentricity
0.00062
Inclination
97.4095°
RAAN
28.8731°
Arg. of periapsis
197.2624°
True anomaly
162.86151°
Mean anomaly
162.8407°
Eccentric anomaly
162.85111°
Mean motion
3.82526 °/min
Orbital period
94.11 mins
BSTAR
0.0006068
Loading maneuver chart data...
Computing Atmospheric mass density...

Documentation

Showing up to 5 results
|